• In Germany
  • List of Countries
  • For 7 days
  • Water Temperature
  • Satellite Maps
  • Weather Map
  • Weather Widgets
  • user-avatar
    Login

    Hourly Weather Mbuji-Mayi

    Today, 12 December, Tuesday

    Time Temperature Precipitation Wind Pressure Humidity
    00:00 +27°C° 0 mm 1 mps 706 mmHg 30%
    01:00 +26°C° 0 mm 1 mps 706 mmHg 32%
    02:00 +26°C° 0 mm 1 mps 706 mmHg 33%
    03:00 +25°C° 0 mm 1 mps 706 mmHg 34%
    04:00 +23°C° 0 mm 0 mps 706 mmHg 35%
    05:00 +22°C° 0 mm 0 mps 706 mmHg 36%
    06:00 +23°C° 0 mm 0 mps 706 mmHg 35%
    07:00 +24°C° 0 mm 0 mps 707 mmHg 34%
    08:00 +26°C° 0 mm 0 mps 707 mmHg 33%
    09:00 +31°C° 0 mm 1 mps 708 mmHg 28%
    10:00 +35°C° 0 mm 2 mps 708 mmHg 22%
    11:00 +38°C° 0 mm 3 mps 708 mmHg 17%
    12:00 +39°C° 0 mm 3 mps 707 mmHg 15%
    13:00 +40°C° 0 mm 3 mps 707 mmHg 14%
    14:00 +42°C° 0 mm 3 mps 706 mmHg 13%
    15:00 +41°C° 0 mm 2 mps 706 mmHg 13%
    16:00 +40°C° 0 mm 2 mps 705 mmHg 14%
    17:00 +39°C° 0 mm 2 mps 705 mmHg 14%
    18:00 +37°C° 0 mm 2 mps 705 mmHg 17%
    19:00 +33°C° 0 mm 1 mps 705 mmHg 20%
    20:00 +30°C° 0 mm 1 mps 706 mmHg 23%
    21:00 +29°C° 0 mm 1 mps 706 mmHg 24%
    22:00 +28°C° 0 mm 1 mps 706 mmHg 25%
    23:00 +28°C° 0 mm 1 mps 706 mmHg 26%

    Tomorrow, 13 December, Wednesday

    Time Temperature Precipitation Wind Pressure Humidity
    00:00 +27°C° 0 mm 1 mps 706 mmHg 27%
    01:00 +27°C° 0 mm 1 mps 706 mmHg 27%
    02:00 +26°C° 0 mm 1 mps 706 mmHg 27%
    03:00 +26°C° 0 mm 1 mps 706 mmHg 28%
    04:00 +25°C° 0 mm 1 mps 706 mmHg 28%
    05:00 +25°C° 0 mm 1 mps 706 mmHg 28%
    06:00 +26°C° 0 mm 2 mps 706 mmHg 27%
    07:00 +27°C° 0 mm 2 mps 707 mmHg 25%
    08:00 +28°C° 0 mm 3 mps 708 mmHg 24%
    09:00 +31°C° 0 mm 3 mps 708 mmHg 21%
    10:00 +35°C° 0 mm 4 mps 708 mmHg 18%
    11:00 +38°C° 0 mm 4 mps 708 mmHg 14%
    12:00 +40°C° 0 mm 4 mps 708 mmHg 14%
    13:00 +40°C° 0 mm 3 mps 707 mmHg 13%
    14:00 +42°C° 0 mm 3 mps 706 mmHg 12%
    15:00 +40°C° 0 mm 3 mps 705 mmHg 12%
    16:00 +40°C° 0 mm 3 mps 705 mmHg 13%
    17:00 +39°C° 0 mm 2 mps 705 mmHg 13%
    18:00 +36°C° 0 mm 2 mps 705 mmHg 16%
    19:00 +33°C° 0 mm 1 mps 705 mmHg 19%
    20:00 +30°C° 0 mm 1 mps 705 mmHg 22%
    21:00 +29°C° 0 mm 1 mps 706 mmHg 23%
    22:00 +28°C° 0 mm 1 mps 706 mmHg 24%
    23:00 +27°C° 0 mm 1 mps 706 mmHg 25%

    Day after tomorrow, 14 December, Thursday

    Time Temperature Precipitation Wind Pressure Humidity
    00:00 +27°C° 0 mm 1 mps 706 mmHg 26%
    01:00 +26°C° 0 mm 1 mps 706 mmHg 27%
    02:00 +26°C° 0 mm 1 mps 705 mmHg 27%
    03:00 +25°C° 0 mm 1 mps 705 mmHg 28%
    04:00 +25°C° 0 mm 1 mps 705 mmHg 29%
    05:00 +24°C° 0 mm 2 mps 705 mmHg 29%
    06:00 +26°C° 0 mm 2 mps 706 mmHg 28%
    07:00 +27°C° 0 mm 3 mps 707 mmHg 27%
    08:00 +28°C° 0 mm 3 mps 707 mmHg 26%
    09:00 +31°C° 0 mm 3 mps 708 mmHg 23%
    10:00 +35°C° 0 mm 3 mps 708 mmHg 20%
    11:00 +38°C° 0 mm 3 mps 709 mmHg 16%
    12:00 +39°C° 0 mm 3 mps 708 mmHg 15%
    13:00 +40°C° 0 mm 2 mps 707 mmHg 13%
    14:00 +42°C° 0 mm 2 mps 706 mmHg 12%
    15:00 +41°C° 0 mm 2 mps 706 mmHg 12%
    16:00 +40°C° 0 mm 2 mps 705 mmHg 13%
    17:00 +40°C° 0 mm 1 mps 704 mmHg 13%
    18:00 +36°C° 0 mm 1 mps 705 mmHg 16%
    19:00 +33°C° 0 mm 1 mps 705 mmHg 19%
    20:00 +28°C° 0 mm 0 mps 705 mmHg 21%
    21:00 +29°C° 0 mm 1 mps 705 mmHg 22%
    22:00 +29°C° 0 mm 1 mps 706 mmHg 23%
    23:00 +28°C° 0 mm 1 mps 706 mmHg 24%

    15 December, Friday

    Time Temperature Precipitation Wind Pressure Humidity
    00:00 +27°C° 0 mm 1 mps 705 mmHg 25%
    01:00 +27°C° 0 mm 1 mps 705 mmHg 26%
    02:00 +26°C° 0 mm 1 mps 705 mmHg 27%
    03:00 +25°C° 0 mm 1 mps 705 mmHg 28%
    04:00 +25°C° 0 mm 1 mps 705 mmHg 29%
    05:00 +24°C° 0 mm 1 mps 705 mmHg 30%
    06:00 +26°C° 0 mm 1 mps 706 mmHg 28%
    07:00 +27°C° 0 mm 2 mps 707 mmHg 27%
    08:00 +28°C° 0 mm 2 mps 708 mmHg 25%
    09:00 +31°C° 0 mm 2 mps 708 mmHg 22%
    10:00 +35°C° 0 mm 2 mps 708 mmHg 19%
    11:00 +38°C° 0 mm 2 mps 709 mmHg 15%
    12:00 +39°C° 0 mm 2 mps 708 mmHg 14%
    13:00 +40°C° 0 mm 2 mps 707 mmHg 13%
    14:00 +41°C° 0 mm 2 mps 706 mmHg 12%
    15:00 +41°C° 0 mm 1 mps 705 mmHg 13%
    16:00 +40°C° 0 mm 1 mps 705 mmHg 13%
    17:00 +39°C° 0 mm 1 mps 704 mmHg 14%
    18:00 +36°C° 0 mm 1 mps 705 mmHg 16%
    19:00 +33°C° 0 mm 1 mps 705 mmHg 19%
    20:00 +30°C° 0 mm 1 mps 705 mmHg 22%
    21:00 +29°C° 0 mm 1 mps 705 mmHg 23%
    22:00 +28°C° 0 mm 1 mps 706 mmHg 24%
    23:00 +28°C° 0 mm 1 mps 706 mmHg 25%

    16 December, Saturday

    Time Temperature Precipitation Wind Pressure Humidity
    00:00 +27°C° 0 mm 1 mps 706 mmHg 26%
    01:00 +26°C° 0 mm 1 mps 705 mmHg 27%
    02:00 +26°C° 0 mm 1 mps 705 mmHg 27%
    03:00 +25°C° 0 mm 1 mps 705 mmHg 28%
    04:00 +24°C° 0 mm 1 mps 705 mmHg 29%
    05:00 +21°C° 0 mm 0 mps 705 mmHg 30%
    06:00 +23°C° 0 mm 0 mps 706 mmHg 29%
    07:00 +24°C° 0 mm 0 mps 707 mmHg 28%
    08:00 +25°C° 0 mm 0 mps 707 mmHg 27%
    09:00 +30°C° 0 mm 1 mps 707 mmHg 22%
    10:00 +34°C° 0 mm 2 mps 708 mmHg 18%
    11:00 +37°C° 0 mm 2 mps 708 mmHg 14%
    12:00 +38°C° 0 mm 2 mps 707 mmHg 13%
    13:00 +40°C° 0 mm 2 mps 706 mmHg 12%
    14:00 +41°C° 0 mm 2 mps 705 mmHg 11%
    15:00 +41°C° 0 mm 2 mps 705 mmHg 11%
    16:00 +40°C° 0 mm 2 mps 704 mmHg 12%
    17:00 +39°C° 0 mm 1 mps 704 mmHg 12%
    18:00 +35°C° 0 mm 1 mps 704 mmHg 15%
    19:00 +32°C° 0 mm 1 mps 704 mmHg 18%
    20:00 +28°C° 0 mm 0 mps 705 mmHg 20%
    21:00 +27°C° 0 mm 0 mps 705 mmHg 21%
    22:00 +28°C° 0 mm 1 mps 705 mmHg 22%
    23:00 +27°C° 0 mm 1 mps 705 mmHg 23%

    17 December, Sunday

    Time Temperature Precipitation Wind Pressure Humidity
    00:00 +27°C° 0 mm 1 mps 705 mmHg 23%
    01:00 +26°C° 0 mm 1 mps 705 mmHg 24%
    02:00 +26°C° 0 mm 1 mps 705 mmHg 24%
    03:00 +25°C° 0 mm 1 mps 705 mmHg 25%
    04:00 +24°C° 0 mm 1 mps 705 mmHg 26%
    05:00 +24°C° 0 mm 1 mps 705 mmHg 26%
    06:00 +25°C° 0 mm 1 mps 706 mmHg 26%
    07:00 +25°C° 0 mm 1 mps 706 mmHg 25%
    08:00 +26°C° 0 mm 1 mps 707 mmHg 25%
    09:00 +30°C° 0 mm 1 mps 707 mmHg 21%
    10:00 +33°C° 0 mm 1 mps 707 mmHg 17%
    11:00 +37°C° 0 mm 1 mps 708 mmHg 14%
    12:00 +39°C° 0 mm 1 mps 707 mmHg 13%
    13:00 +41°C° 0 mm 1 mps 706 mmHg 12%
    14:00 +42°C° 0 mm 1 mps 705 mmHg 11%
    15:00 +41°C° 0 mm 1 mps 705 mmHg 11%
    16:00 +40°C° 0 mm 1 mps 704 mmHg 11%
    17:00 +40°C° 0 mm 1 mps 704 mmHg 12%
    18:00 +36°C° 0 mm 1 mps 704 mmHg 14%
    19:00 +31°C° 0 mm 0 mps 704 mmHg 17%
    20:00 +28°C° 0 mm 0 mps 705 mmHg 19%
    21:00 +27°C° 0 mm 0 mps 705 mmHg 20%
    22:00 +26°C° 0 mm 0 mps 705 mmHg 21%
    23:00 +26°C° 0 mm 0 mps 705 mmHg 22%
    Show more